Tracking 30746 objects as of 20-Jun-2025
HD Live streaming from Space Station
objects crossing your sky now

STARLINK-5534

Track STARLINK-5534 now!
10-day predictions
STARLINK-5534 is classified as:


NORAD ID: 56477
Int'l Code: 2023-064AF
Perigee: 576.9 km
Apogee: 581.4 km
Inclination: 70.0 °
Period: 96.1 minutes
Semi major axis: 6950 km
RCS: Unknown
Launch date: May 10, 2023
Source: United States (US)
Launch site: AIR FORCE WESTERN TEST RANGE (AFWTR)
Your satellite tracking list
Your tracking list is empty




NASA's NSSDC Master Catalog

Two Line Element Set (TLE):
1 56477U 23064AF  25170.91668981 -.00025429  00000-0 -21305-2 0  9994
2 56477  70.0022  66.9255 0003265 271.0527 330.6153 14.98340756  5615
Source of the keplerian elements: AFSPC